Weather History for Redding, CA

Change the Weather History Date:

Thursday, February 14, 2013

  Actual Average Record
Temperature  
Mean Temperature 63 °F -  
Max Temperature 71 °F 60 °F 76 °F (1988)
Min Temperature 54 °F 39 °F 26 °F (1990)
Degree Days  
Heating Degree Days 2    
Cooling Degree Days 0    
Growing Degree Days 12 (Base 50)    
Moisture  
Dew Point 31 °F    
Average Humidity 33    
Maximum Humidity 46    
Minimum Humidity 19    
Precipitation  
Precipitation 0.00 in 0.20 in 1.51 in (1998)
Month to date precipitation 0.53 2.79  
Year to date precipitation 1.46 8.75  
Since 1 July precipitation 20.62 22.51  
Sea Level Pressure  
Sea Level Pressure 30.27 in    
Wind  
Wind Speed 14 mph (North)    
Max Wind Speed 31 mph    
Max Gust Speed 39 mph    
Visibility 10 miles    
Events      
T = Trace of Precipitation, MM = Missing Value Source: NWS Daily Summary

Daily Weather History Graph

Daily Weather History Graph

Search for Another Location

Airport:

Trip Planner

Search our weather history database for the weather conditions in past years. The results will help you decide how hot, cold, wet, or windy it might be!

Date:

Astronomy

Feb. 14, 2013 Rise Set
Actual Time 7:03 AM PST 5:43 PM PST
Civil Twilight 6:35 AM PST 6:11 PM PST
Nautical Twilight 6:03 AM PST 6:43 PM PST
Astronomical Twilight 5:32 AM PST 7:15 PM PST
Moon 9:07 AM PST (2/14) 10:53 PM PST (2/14)
Length of Visible Light 11h 36m
Length of Day
10h 39m
Waxing Crescent, 22% of the Moon is Illuminated
Feb 14
Waxing Crescent
Feb 17
First Quarter
Feb 25
Full
Mar 4
Last Quarter
Mar 11
New

Hourly Weather History & Observations

Time (PST) Temp. Dew Point Humidity Pressure Visibility Wind Dir Wind Speed Gust Speed Precip Events Conditions
12:53 AM 57.9 °F 32.0 °F 37% 30.27 in 10.0 mi North 11.5 mph - N/A   Clear
1:53 AM 57.9 °F 33.1 °F 39% 30.27 in 10.0 mi NNW 11.5 mph - N/A   Clear
2:53 AM 55.9 °F 34.0 °F 44% 30.26 in 10.0 mi NNW 10.4 mph - N/A   Clear
3:53 AM 57.0 °F 33.1 °F 40% 30.27 in 10.0 mi North 8.1 mph 18.4 mph N/A   Clear
4:53 AM 55.9 °F 34.0 °F 44% 30.28 in 10.0 mi North 17.3 mph - N/A   Clear
5:53 AM 55.0 °F 34.0 °F 45% 30.29 in 10.0 mi North 15.0 mph 20.7 mph N/A   Clear
6:53 AM 54.0 °F 34.0 °F 47% 30.30 in 10.0 mi NNW 12.7 mph 21.9 mph N/A   Clear
7:53 AM 55.0 °F 34.0 °F 45% 30.31 in 10.0 mi North 17.3 mph 25.3 mph N/A   Clear
8:53 AM 57.9 °F 34.0 °F 41% 30.32 in 10.0 mi North 18.4 mph 27.6 mph N/A   Clear
9:53 AM 61.0 °F 34.0 °F 36% 30.31 in 10.0 mi North 19.6 mph 28.8 mph N/A   Clear
10:53 AM 64.0 °F 32.0 °F 30% 30.30 in 10.0 mi North 24.2 mph 36.8 mph N/A   Clear
11:53 AM 66.0 °F 32.0 °F 28% 30.28 in 10.0 mi North 20.7 mph 32.2 mph N/A   Clear
12:53 PM 69.1 °F 32.0 °F 25% 30.25 in 10.0 mi NNE 23.0 mph 28.8 mph N/A   Clear
1:53 PM - - N/A% 30.24 in 10.0 mi North 20.7 mph 32.2 mph N/A   Clear
2:53 PM 71.1 °F 28.0 °F 20% 30.21 in 10.0 mi NNE 24.2 mph 33.4 mph N/A   Clear
3:53 PM 71.1 °F 27.0 °F 19% 30.21 in 10.0 mi North 20.7 mph 26.5 mph N/A   Clear
4:53 PM 69.1 °F 28.9 °F 22% 30.23 in 10.0 mi NNE 18.4 mph 25.3 mph N/A   Clear
5:53 PM 66.0 °F 28.9 °F 25% 30.24 in 10.0 mi North 12.7 mph - N/A   Clear
6:53 PM 64.0 °F 26.1 °F 24% 30.25 in 10.0 mi North 16.1 mph - N/A   Clear
7:53 PM 64.0 °F 26.1 °F 24% 30.25 in 10.0 mi North 17.3 mph 27.6 mph N/A   Clear
8:53 PM 62.1 °F 27.0 °F 26% 30.26 in 10.0 mi North 10.4 mph - N/A   Clear
9:53 PM 62.1 °F 28.0 °F 28% 30.26 in 10.0 mi North 9.2 mph - N/A   Clear
10:53 PM 61.0 °F 28.0 °F 29% 30.27 in 10.0 mi NNW 6.9 mph - N/A   Clear
11:53 PM 60.1 °F 28.0 °F 30% 30.27 in 10.0 mi NNW 5.8 mph - N/A   Clear